Location: Newark
(46.0333°N, 5.8167°E)
Time: 12:08:57
(UTC+00:00)

Envisat - Pass Details

Date: 18 September 2019
Orbit: 764 x 766 km, 98.1° (Epoch: 21 October)

Event Time Altitude Azimuth Distance (km) Brightness Sun altitude
Rises 18:57:33 0° 207° (SSW) 3,221 6.4 -13.5°
Reaches altitude 10° 19:00:30 10° 225° (SW) 2,300 5.8 -14.0°
Maximum altitude 19:04:02 19° 270° (W) 1,774 5.9 -14.6°
Drops below altitude 10° 19:07:35 10° 314° (NW) 2,312 6.5 -15.2°
Sets 19:10:36 0° 332° (NNW) 3,244 7.0 -15.7°
